Location: *
(58.7167°N, 26.1833°E)
Time: 09:52:00
(UTC+00:00)

USA 267 - Pass Details

Date: 25 August 2019
Orbit: 1102 x 1106 km, 123.0° (Epoch: 17 October)

Event Time Altitude Azimuth Distance (km) Brightness Sun altitude
Rises 21:07:01 0° 92° (E) 3,923 6.0 -19.2°
Reaches altitude 10° 21:09:30 10° 94° (E) 2,966 5.3 -19.3°
Maximum altitude 21:16:05 79° 181° (S) 1,128 3.2 -19.6°
Drops below altitude 10° 21:22:40 10° 269° (W) 2,970 5.7 -19.8°
Sets 21:25:09 0° 271° (W) 3,928 6.3 -19.9°
